KA4JMC Weather Reports


Display with metric or nautical units.
time (UTC)temp
F
wind
direction
speed
MPH
gust
MPH
rain 1hr
in
rain 24hr
in
rain mn
in
humidity
%
barometer
mb
20260904212023 89 227 4.0 4.0 0.00 0.00 0.00 1012.2
20260904211524 89 242 3.0 8.0 0.00 0.00 0.00 1012.2
20260904211022 88 170 3.0 3.0 0.00 0.00 0.00 1012.2
20260904210522 88 227 4.0 2.0 0.00 0.00 0.00 1012.2
20260904210024 88 234 4.0 3.0 0.00 0.00 0.00 1012.2
20260904205522 88 165 0.0 0.0 0.00 0.00 0.00 1012.2
20260904205045 88 202 0.0 4.0 0.00 0.00 0.00 1012.2
20260904204523 88 207 4.0 0.0 0.00 0.00 0.00 1012.2
20260904204022 88 208 4.0 4.0 0.00 0.00 0.00 1012.2
20260904203523 88 179 4.0 5.0 0.00 0.00 0.00 1012.2
20260904203023 88 147 4.0 4.0 0.00 0.00 0.00 1012.2
20260904202524 88 189 0.0 3.0 0.00 0.00 0.00 1012.2
20260904202024 88 225 3.0 4.0 0.00 0.00 0.00 1013.2
20260904201522 88 199 4.0 9.0 0.00 0.00 0.00 1013.2
20260904201022 87 135 3.0 5.0 0.00 0.00 0.00 1013.2
20260904200522 87 185 3.0 6.0 0.00 0.00 0.00 1013.2
20260904200027 87 187 5.0 4.0 0.00 0.00 0.00 1013.2
20260904195524 87 189 3.0 4.0 0.00 0.00 0.00 1013.2
20260904195023 87 176 3.0 3.0 0.00 0.00 0.00 1013.2
20260904194544 87 188 4.0 8.0 0.00 0.00 0.00 1013.2
20260904194024 87 190 3.0 3.0 0.00 0.00 0.00 1013.2
20260904193544 87 157 3.0 3.0 0.00 0.00 0.00 1013.2
20260904193024 87 195 5.0 3.0 0.00 0.00 0.00 1013.2
20260904192543 87 231 3.0 3.0 0.00 0.00 0.00 1013.2
20260904192031 86 218 0.0 4.0 0.00 0.00 0.00 1013.2
20260904191522 86 159 4.0 4.0 0.00 0.00 0.00 1013.2
20260904191023 86 229 3.0 3.0 0.00 0.00 0.00 1013.2
20260904190543 86 229 4.0 4.0 0.00 0.00 0.00 1014.2
20260904190045 85 178 2.0 3.0 0.00 0.00 0.00 1014.2
20260904185543 85 211 4.0 5.0 0.00 0.00 0.00 1014.2
20260904185030 84 209 4.0 4.0 0.00 0.00 0.00 1014.2
20260904184522 84 103 3.0 3.0 0.00 0.00 0.00 1014.2
20260904184026 84 195 2.0 0.0 0.00 0.00 0.00 1014.2
20260904183544 83 176 3.0 0.0 0.00 0.00 0.00 1014.2
20260904183035 82 170 0.0 0.0 0.00 0.00 0.00 1014.2
20260904182523 81 194 0.0 3.0 0.00 0.00 0.00 1014.2
20260904182024 81 213 4.0 5.0 0.00 0.00 0.00 1014.2
20260904181522 80 178 2.0 0.0 0.00 0.00 0.00 1014.2
20260904181023 79 159 0.0 0.0 0.00 0.00 0.00 1014.2
20260904180523 78 177 0.0 0.0 0.00 0.00 0.00 1014.2
20260904180045 76 193 0.0 0.0 0.00 0.00 0.00 1014.2
20260904175522 76 203 0.0 0.0 0.00 0.00 0.00 1014.2
20260904175022 76 191 0.0 0.0 0.00 0.00 0.00 1014.2
20260904174524 76 150 0.0 0.0 0.00 0.00 0.00 1014.2
20260904174023 76 140 0.0 0.0 0.00 0.00 0.00 1014.2
20260904173522 75 135 0.0 0.0 0.00 0.00 0.00 1015.2
20260904173024 75 110 0.0 0.0 0.00 0.00 0.00 1015.2
20260904172523 75 95 0.0 2.0 0.00 0.00 0.00 1015.2
20260904172022 75 93 0.0 0.0 0.00 0.00 0.00 1016.2
20260904171522 74 100 0.0 0.0 0.00 0.00 0.00 1016.2
20260904171022 74 103 0.0 0.0 0.00 0.00 0.00 1016.2
20260904170524 74 103 0.0 0.0 0.00 0.00 0.00 1017.2
20260904170030 75 103 0.0 0.0 0.00 0.00 0.00 1017.2
20260904165543 76 116 0.0 0.0 0.00 0.00 0.00 1017.2
20260904165043 76 117 0.0 0.0 0.00 0.00 0.00 1017.2
20260904164523 76 72 0.0 0.0 0.00 0.00 0.00 1017.2
20260904164023 76 93 0.0 0.0 0.00 0.00 0.00 1017.2
20260904163523 77 93 0.0 0.0 0.00 0.00 0.00 1016.2
20260904163023 77 93 0.0 0.0 0.00 0.00 0.00 1016.2
20260904162522 77 60 0.0 0.0 0.00 0.00 0.00 1016.2
20260904162027 77 101 0.0 0.0 0.00 0.00 0.00 1017.2
20260904161524 76 112 0.0 0.0 0.00 0.00 0.00 1017.2
20260904161026 77 97 0.0 0.0 0.00 0.00 0.00 1017.2
20260904160527 77 97 0.0 0.0 0.00 0.00 0.00 1017.2
20260904160024 77 99 0.0 0.0 0.00 0.00 0.00 1017.2
20260904155525 77 76 0.0 0.0 0.00 0.00 0.00 1017.2
20260904155023 77 106 0.0 3.0 0.00 0.00 0.00 1017.2
20260904154528 77 106 0.0 0.0 0.00 0.00 0.00 1017.2
20260904154022 77 82 0.0 0.0 0.00 0.00 0.00 1017.2
20260904153525 78 80 0.0 0.0 0.00 0.00 0.00 1017.2
20260904153022 77 86 0.0 0.0 0.00 0.00 0.00 1017.2
20260904152523 77 64 0.0 0.0 0.00 0.00 0.00 1017.2
20260904152030 77 71 2.0 0.0 0.00 0.00 0.00 1017.2
20260904151531 77 92 0.0 0.0 0.00 0.00 0.00 1017.2
20260904151027 77 72 0.0 0.0 0.00 0.00 0.00 1017.2
20260904150544 78 116 0.0 0.0 0.00 0.00 0.00 1016.2
20260904150100 78 50 0.0 0.0 0.00 0.00 0.00 1016.2
20260904145528 78 36 0.0 0.0 0.00 0.00 0.00 1016.2
20260904145023 79 65 0.0 0.0 0.00 0.00 0.00 1015.2
20260904144529 79 56 0.0 0.0 0.00 0.00 0.00 1015.2
20260904144023 80 98 0.0 0.0 0.00 0.00 0.00 1015.2
20260904143528 79 89 0.0 0.0 0.00 0.00 0.00 1015.2
20260904143044 79 56 0.0 0.0 0.00 0.00 0.00 1015.2
20260904142522 79 65 0.0 0.0 0.00 0.00 0.00 1015.2
20260904142023 79 84 0.0 0.0 0.00 0.00 0.00 1015.2
20260904141522 77 92 0.0 0.0 0.00 0.00 0.00 1015.2
20260904141023 77 92 0.0 0.0 0.00 0.00 0.00 1015.2
20260904140523 76 67 0.0 0.0 0.00 0.00 0.00 1015.2
20260904140023 76 64 0.0 0.0 0.00 0.00 0.00 1015.2
20260904135523 76 94 0.0 0.0 0.00 0.00 0.00 1015.2
20260904135022 75 95 0.0 0.0 0.00 0.00 0.00 1015.2
20260904134543 75 45 0.0 0.0 0.00 0.00 0.00 1015.2
20260904134023 76 59 0.0 0.0 0.00 0.00 0.00 1015.2
20260904133523 76 111 0.0 0.0 0.00 0.00 0.00 1015.2
20260904133044 75 83 0.0 0.0 0.00 0.00 0.00 1015.2
20260904132524 75 75 0.0 0.0 0.00 0.00 0.00 1015.2
20260904132023 75 75 0.0 0.0 0.00 0.00 0.00 1015.2
20260904131523 74 76 0.0 0.0 0.00 0.00 0.00 1015.2
20260904131023 74 48 0.0 0.0 0.00 0.00 0.00 1015.2
20260904130522 74 54 0.0 0.0 0.00 0.00 0.00 1014.2
20260904130022 74 76 0.0 0.0 0.00 0.00 0.00 1014.2
20260904125522 74 72 0.0 0.0 0.00 0.00 0.00 1014.2
20260904125045 74 72 0.0 0.0 0.00 0.00 0.00 1014.2
20260904124525 74 72 0.0 0.0 0.00 0.00 0.00 1014.2
20260904124023 74 72 0.0 0.0 0.00 0.00 0.00 1014.2
20260904123522 74 72 0.0 0.0 0.00 0.00 0.00 1014.2
20260904123023 73 61 0.0 0.0 0.00 0.00 0.00 1014.2
20260904122530 73 61 0.0 0.0 0.00 0.00 0.00 1014.2
20260904122034 73 95 0.0 0.0 0.00 0.00 0.00 1014.2
20260904121528 74 95 0.0 0.0 0.00 0.00 0.00 1014.2
20260904121027 74 69 0.0 0.0 0.00 0.00 0.00 1014.2
20260904120526 74 69 0.0 0.0 0.00 0.00 0.00 1013.2
20260904120024 74 69 0.0 0.0 0.00 0.00 0.00 1013.2
20260904115523 74 69 0.0 0.0 0.00 0.00 0.00 1013.2
20260904115023 74 69 0.0 0.0 0.00 0.00 0.00 1013.2
20260904114523 74 69 0.0 0.0 0.00 0.00 0.00 1013.2
20260904114027 74 69 0.0 0.0 0.00 0.00 0.00 1013.2
20260904113533 74 69 0.0 0.0 0.00 0.00 0.00 1013.2
20260904113026 74 63 0.0 0.0 0.00 0.00 0.00 1013.2
20260904112532 74 64 0.0 0.0 0.00 0.00 0.00 1013.2
20260904112024 73 182 0.0 0.0 0.00 0.00 0.00 1013.2
20260904111546 73 182 0.0 0.0 0.00 0.00 0.00 1013.2
20260904111024 73 182 0.0 0.0 0.00 0.00 0.00 1013.2
20260904110523 73 182 0.0 0.0 0.00 0.00 0.00 1012.2
20260904110023 73 182 0.0 0.0 0.00 0.00 0.00 1012.2
20260904105543 74 182 0.0 0.0 0.00 0.00 0.00 1012.2
20260904105022 74 182 0.0 0.0 0.00 0.00 0.00 1012.2
20260904104523 74 182 0.0 0.0 0.00 0.00 0.00 1012.2
20260904104044 74 182 0.0 0.0 0.00 0.00 0.00 1012.2
20260904103523 74 182 0.0 0.0 0.00 0.00 0.00 1012.2
20260904103023 74 182 0.0 0.0 0.00 0.00 0.00 1012.2
20260904102522 74 182 0.0 0.0 0.00 0.00 0.00 1012.2
20260904102023 74 182 0.0 0.0 0.00 0.00 0.00 1012.2
20260904101522 74 182 0.0 0.0 0.00 0.00 0.00 1012.2
20260904101023 74 182 0.0 0.0 0.00 0.00 0.00 1012.2
20260904100523 75 182 0.0 0.0 0.00 0.00 0.00 1012.2
20260904100022 75 182 0.0 0.0 0.00 0.00 0.00 1012.2
20260904095523 75 182 0.0 0.0 0.00 0.00 0.00 1012.2
20260904095022 75 182 0.0 0.0 0.00 0.00 0.00 1012.2
20260904094524 75 182 0.0 0.0 0.00 0.00 0.00 1012.2
20260904094022 75 182 0.0 0.0 0.00 0.00 0.00 1012.2
20260904093523 75 182 0.0 0.0 0.00 0.00 0.00 1012.2
20260904093022 75 187 0.0 0.0 0.00 0.00 0.00 1012.2
20260904092522 75 187 0.0 0.0 0.00 0.00 0.00 1012.2
20260904092023 75 187 0.0 0.0 0.00 0.00 0.00 1012.2
20260904091523 75 204 0.0 0.0 0.00 0.00 0.00 1012.2
20260904091022 75 204 0.0 0.0 0.00 0.00 0.00 1012.2
20260904090532 75 176 0.0 0.0 0.00 0.00 0.00 1012.2
20260904090034 75 225 0.0 0.0 0.00 0.00 0.00 1012.2
20260904085523 75 197 0.0 0.0 0.00 0.00 0.00 1012.2
20260904085023 75 237 0.0 0.0 0.00 0.00 0.00 1012.2
20260904084522 75 238 0.0 0.0 0.00 0.00 0.00 1012.2
20260904084023 74 194 0.0 0.0 0.00 0.00 0.00 1012.2
20260904083523 74 171 0.0 0.0 0.00 0.00 0.00 1013.2
20260904083033 74 192 0.0 0.0 0.00 0.00 0.00 1013.2
20260904082523 74 192 0.0 0.0 0.00 0.00 0.00 1013.2
20260904082029 74 192 0.0 0.0 0.00 0.00 0.00 1013.2
20260904081527 74 192 0.0 0.0 0.00 0.00 0.00 1013.2
20260904081022 74 192 0.0 0.0 0.00 0.00 0.00 1013.2
20260904080523 75 192 0.0 0.0 0.00 0.00 0.00 1013.2
20260904080026 75 192 0.0 0.0 0.00 0.00 0.00 1013.2
20260904075524 75 192 0.0 0.0 0.00 0.00 0.00 1013.2
20260904075046 75 192 0.0 0.0 0.00 0.00 0.00 1012.2
20260904074529 75 192 0.0 0.0 0.00 0.00 0.00 1012.2
20260904074023 75 192 0.0 0.0 0.00 0.00 0.00 1012.2
20260904073524 75 192 0.0 0.0 0.00 0.00 0.00 1012.2
20260904073036 75 192 0.0 0.0 0.00 0.00 0.00 1012.2
20260904072523 75 192 0.0 0.0 0.00 0.00 0.00 1012.2
20260904072022 75 192 0.0 0.0 0.00 0.00 0.00 1012.2
20260904071543 75 192 0.0 0.0 0.00 0.00 0.00 1012.2
20260904071022 75 192 0.0 0.0 0.00 0.00 0.00 1012.2
20260904070522 75 192 0.0 0.0 0.00 0.00 0.00 1012.2
20260904070044 75 204 0.0 0.0 0.00 0.00 0.00 1012.2
20260904065533 75 210 0.0 0.0 0.00 0.00 0.00 1012.2
20260904065026 75 177 0.0 0.0 0.00 0.00 0.00 1012.2
20260904064530 74 196 2.0 0.0 0.00 0.00 0.00 1012.2
20260904064044 74 189 0.0 0.0 0.00 0.00 0.00 1012.2
20260904063523 74 203 0.0 0.0 0.00 0.00 0.00 1013.2
20260904063022 74 194 0.0 0.0 0.00 0.00 0.00 1013.2
20260904062522 74 194 0.0 0.0 0.00 0.00 0.00 1013.2
20260904062023 74 194 0.0 0.0 0.00 0.00 0.00 1013.2
20260904061523 73 194 0.0 0.0 0.00 0.00 0.00 1013.2
20260904061022 74 194 0.0 0.0 0.00 0.00 0.00 1013.2
20260904060523 74 194 0.0 0.0 0.00 0.00 0.00 1013.2
20260904060022 74 194 0.0 0.0 0.00 0.00 0.00 1013.2
20260904055525 74 194 0.0 0.0 0.00 0.00 0.00 1013.2
20260904055023 74 194 0.0 0.0 0.00 0.00 0.00 1013.2
20260904054522 74 194 0.0 0.0 0.00 0.00 0.00 1013.2
20260904054022 74 194 0.0 0.0 0.00 0.00 0.00 1013.2
20260904053523 74 194 0.0 0.0 0.00 0.00 0.00 1013.2
20260904053022 74 194 0.0 0.0 0.00 0.00 0.00 1013.2
20260904052528 74 194 0.0 0.0 0.00 0.00 0.00 1013.2
20260904052036 74 194 0.0 0.0 0.00 0.00 0.00 1013.2
20260904051523 73 194 0.0 0.0 0.00 0.00 0.00 1013.2
20260904051052 74 194 0.0 0.0 0.00 0.00 0.00 1013.2
20260904050525 73 194 0.0 0.0 0.00 0.00 0.00 1013.2
20260904050052 73 194 0.0 0.0 0.00 0.00 0.00 1013.2
20260904045545 74 194 0.0 0.0 0.00 0.00 0.00 1013.2
20260904045022 74 194 0.0 0.0 0.00 0.00 0.00 1013.2
20260904044529 74 194 0.0 0.0 0.00 0.00 0.00 1013.2
20260904044027 74 194 0.0 0.0 0.00 0.00 0.00 1013.2
20260904043554 74 194 0.0 0.0 0.00 0.00 0.00 1013.2
20260904043022 74 194 0.0 0.0 0.00 0.00 0.00 1013.2
20260904042544 74 194 0.0 0.0 0.00 0.00 0.00 1013.2
20260904042024 74 194 0.0 0.0 0.00 0.00 0.00 1013.2
20260904041522 74 194 0.0 0.0 0.00 0.00 0.00 1013.2
20260904041024 74 194 0.0 0.0 0.00 0.00 0.00 1013.2
20260904040523 74 194 0.0 0.0 0.00 0.00 0.00 1013.2
20260904040023 74 194 0.0 0.0 0.00 0.00 0.00 1013.2
20260904035523 74 194 0.0 0.0 0.00 0.00 0.00 1013.2
20260904035031 74 194 0.0 0.0 0.00 0.00 0.00 1014.2
20260904034523 74 194 0.0 0.0 0.00 0.00 0.00 1014.2
20260904034041 74 194 0.0 0.0 0.00 0.00 0.00 1014.2
20260904033522 74 194 0.0 0.0 0.00 0.00 0.00 1013.2
20260904033023 74 194 0.0 0.0 0.00 0.00 0.00 1013.2
20260904032522 74 194 0.0 0.0 0.00 0.00 0.00 1013.2
20260904032023 74 194 0.0 0.0 0.00 0.00 0.00 1013.2
20260904031525 74 194 0.0 0.0 0.00 0.00 0.00 1013.2
20260904031023 74 194 0.0 0.0 0.00 0.00 0.00 1013.2
20260904030522 74 194 0.0 0.0 0.00 0.00 0.00 1014.2
20260904030033 74 194 0.0 0.0 0.00 0.00 0.00 1014.2
20260904025523 74 194 0.0 0.0 0.00 0.00 0.00 1014.2
20260904025043 74 194 0.0 0.0 0.00 0.00 0.00 1014.2
20260904024522 74 194 0.0 0.0 0.00 0.00 0.00 1014.2
20260904024022 74 194 0.0 0.0 0.00 0.00 0.00 1014.2
20260904023523 75 194 0.0 0.0 0.00 0.00 0.00 1014.2
20260904023026 75 194 0.0 0.0 0.00 0.00 0.00 1014.2
20260904022522 75 194 0.0 0.0 0.00 0.00 0.00 1014.2
20260904022022 75 194 0.0 0.0 0.00 0.00 0.00 1013.2
20260904021522 75 194 0.0 0.0 0.00 0.00 0.00 1013.2
20260904021023 75 194 0.0 0.0 0.00 0.00 0.00 1013.2
20260904020543 75 194 0.0 0.0 0.00 0.00 0.00 1013.2
20260904020024 75 194 0.0 0.0 0.00 0.00 0.00 1013.2
20260904015530 75 194 0.0 0.0 0.00 0.00 0.00 1013.2
20260904015023 76 194 0.0 0.0 0.00 0.00 0.00 1013.2
20260904014524 76 194 0.0 0.0 0.00 0.00 0.00 1013.2
20260904014024 76 194 0.0 0.0 0.00 0.00 0.00 1013.2
20260904013522 76 194 0.0 0.0 0.00 0.00 0.00 1013.2
20260904013022 76 194 0.0 0.0 0.00 0.00 0.00 1013.2
20260904012523 76 194 0.0 0.0 0.00 0.00 0.00 1013.2
20260904012030 76 194 0.0 0.0 0.00 0.00 0.00 1013.2
20260904011528 76 194 0.0 0.0 0.00 0.00 0.00 1013.2
20260904011048 76 194 0.0 0.0 0.00 0.00 0.00 1013.2
20260904010522 76 194 0.0 0.0 0.00 0.00 0.00 1013.2
20260904010023 77 194 0.0 0.0 0.00 0.00 0.00 1013.2
20260904005526 77 194 0.0 0.0 0.00 0.00 0.00 1013.2
20260904005023 77 194 0.0 0.0 0.00 0.00 0.00 1012.2
20260904004524 78 194 0.0 0.0 0.00 0.00 0.00 1012.2
20260904004035 78 194 0.0 0.0 0.00 0.00 0.00 1012.2
20260904003527 78 194 0.0 0.0 0.00 0.00 0.00 1012.2
20260904003024 78 194 0.0 0.0 0.00 0.00 0.00 1012.2
20260904002522 78 194 0.0 0.0 0.00 0.00 0.00 1012.2
20260904002024 79 194 0.0 0.0 0.00 0.00 0.00 1012.2
20260904001522 79 194 0.0 0.0 0.00 0.00 0.00 1012.2
20260904001022 79 194 0.0 0.0 0.00 0.00 0.00 1012.2
20260904000543 79 194 0.0 0.0 0.00 0.00 0.00 1012.2
20260904000024 80 194 0.0 0.0 0.00 0.00 0.00 1012.2
20260903235530 80 194 0.0 0.0 0.00 0.00 0.00 1012.2
20260903235023 80 194 0.0 0.0 0.00 0.00 0.00 1012.2
20260903234522 80 194 0.0 0.0 0.00 0.00 0.00 1012.2
20260903234023 80 194 0.0 0.0 0.00 0.00 0.00 1012.2
20260903233522 81 194 0.0 0.0 0.00 0.00 0.00 1012.2
20260903233023 81 194 0.0 0.0 0.00 0.00 0.00 1012.2
20260903232522 82 194 0.0 0.0 0.00 0.00 0.00 1012.2
20260903232023 82 194 0.0 0.0 0.00 0.00 0.00 1012.2
20260903231522 82 194 0.0 0.0 0.00 0.00 0.00 1012.2
20260903231043 82 194 0.0 0.0 0.00 0.00 0.00 1012.2
20260903230522 83 194 0.0 0.0 0.00 0.00 0.00 1012.2
20260903230045 83 194 0.0 0.0 0.00 0.00 0.00 1012.2
20260903225523 83 194 0.0 0.0 0.00 0.00 0.00 1012.2
20260903225024 83 194 0.0 0.0 0.00 0.00 0.00 1012.2
20260903224523 83 194 0.0 0.0 0.00 0.00 0.00 1012.2
20260903224023 84 194 0.0 0.0 0.00 0.00 0.00 1012.2
20260903223522 84 194 0.0 0.0 0.00 0.00 0.00 1013.2
20260903223024 84 194 0.0 0.0 0.00 0.00 0.00 1013.2
20260903222529 84 194 0.0 0.0 0.00 0.00 0.00 1013.2
20260903222023 84 194 0.0 0.0 0.00 0.00 0.00 1013.2
20260903221524 84 194 0.0 0.0 0.00 0.00 0.00 1013.2
20260903221033 84 194 0.0 0.0 0.00 0.00 0.00 1013.2
20260903220547 84 194 0.0 0.0 0.00 0.00 0.00 1013.2
20260903220032 84 201 0.0 0.0 0.00 0.00 0.00 1013.2
20260903215535 84 216 0.0 0.0 0.00 0.00 0.00 1013.2
20260903215027 84 250 0.0 0.0 0.00 0.00 0.00 1013.2
20260903214526 84 231 0.0 0.0 0.00 0.00 0.00 1013.2
20260903214023 84 231 0.0 0.0 0.00 0.00 0.00 1013.2
20260903213525 85 231 0.0 0.0 0.00 0.00 0.00 1013.2
20260903213038 85 231 0.0 0.0 0.00 0.00 0.00 1013.2
20260903212523 85 246 0.0 0.0 0.00 0.00 0.00 1013.2